This is the latest recevied weather packets stored in our database for station/object VA3BOO. If no packets are shown the sender has not sent any weather packets the latest 10 day(s).
| Time | Temp. | Humidity | Pressure | Rain* | Wind** | Luminosity | Snow |
|---|---|---|---|---|---|---|---|
| 1777811705 | 6.11° C | 53% | 1012.5 hPa | 0 mm | - | 181 W/m² | - |
| 1777811404 | 6.11° C | 53% | 1012.4 hPa | 0 mm | - | 169 W/m² | - |
| 1777811105 | 5.56° C | 55% | 1012.3 hPa | 0 mm | - | 160 W/m² | - |
| 1777810805 | 6.11° C | 52% | 1012.2 hPa | 0 mm | - | 155 W/m² | - |
| 1777810504 | 5.56° C | 56% | 1012.4 hPa | 0 mm | - | 148 W/m² | - |
| 1777810205 | 5.56° C | 57% | 1012.5 hPa | 0 mm | - | 135 W/m² | - |
| 1777809904 | 5.56° C | 55% | 1012.5 hPa | 0 mm | - | 129 W/m² | - |
| 1777809604 | 5.56° C | 59% | 1012.5 hPa | 0 mm | - | 119 W/m² | - |
| 1777809304 | 5° C | 62% | 1012.5 hPa | 0 mm | - | 114 W/m² | - |
| 1777809004 | 5° C | 63% | 1012.4 hPa | 0 mm | - | 108 W/m² | - |
| 1777808704 | 5° C | 66% | 1012.4 hPa | 0 mm | - | 101 W/m² | - |
| 1777808404 | 4.44° C | 66% | 1012.3 hPa | 0 mm | - | 94 W/m² | - |
| 1777808104 | 4.44° C | 67% | 1012.4 hPa | 0 mm | - | 89 W/m² | - |
| 1777807804 | 4.44° C | 68% | 1012.4 hPa | 0 mm | - | 85 W/m² | - |
| 1777807504 | 4.44° C | 69% | 1012.3 hPa | 0 mm | - | 83 W/m² | - |
| 1777807204 | 3.89° C | 70% | 1012.2 hPa | 0 mm | - | 74 W/m² | - |
| 1777806905 | 3.89° C | 70% | 1012.2 hPa | 0 mm | - | 66 W/m² | - |
| 1777806604 | 3.89° C | 70% | 1012.2 hPa | 0 mm | - | 61 W/m² | - |
| 1777806305 | 3.89° C | 70% | 1012.1 hPa | 0 mm | - | 55 W/m² | - |
| 1777806004 | 3.89° C | 71% | 1012.2 hPa | 0 mm | - | 48 W/m² | - |
| 1777805704 | 3.89° C | 72% | 1012.2 hPa | 0 mm | - | 43 W/m² | - |
| 1777805404 | 3.89° C | 72% | 1012 hPa | 0 mm | - | 37 W/m² | - |
| 1777805104 | 3.33° C | 72% | 1011.9 hPa | 0 mm | - | 32 W/m² | - |
| 1777804804 | 3.33° C | 72% | 1011.9 hPa | 0 mm | - | 27 W/m² | - |
| 1777804505 | 3.33° C | 72% | 1012.1 hPa | 0 mm | - | 23 W/m² | - |
* Rain latest hour (hover to see other rain measurements)
** Current wind speed in m/s (hover to see current wind gust speed)